Location: Unspecified
(49.2170°N, 0.0000°E)
Time: 08:05:23
(UTC+00:00)

Vanguard 3 - Pass Details

Date: 27 January 2021
Orbit: 508 x 3262 km, 33.4° (Epoch: 08 March)

Event Time Altitude Azimuth Distance (km) Brightness Sun altitude
Rises 09:11:13 0° 260° (W) 5,124 10.9 11.4°
Reaches altitude 10° 09:16:48 10° 237° (WSW) 4,702 11.0 12.0°
Maximum altitude 09:22:42 14° 211° (SSW) 4,879 11.4 12.6°
Drops below altitude 10° 09:29:41 10° 186° (S) 5,696 12.2 13.4°
Sets 09:38:16 0° 167° (SSE) 7,091 13.2 14.2°
